Location: Forli
(44.2227°N, 12.0407°E)
Time: 03:39:10
(UTC+02:00)

DX 1 - Pass Details

Date: 14 April 2026
Orbit: 593 x 604 km, 98.4° (Epoch: 19 May)

Event Time Altitude Azimuth Distance (km) Brightness Sun altitude
Rises 03:03:46 0° 32° (NNE) 2,841 ? -30.8°
Reaches altitude 10° 03:06:51 10° 57° (ENE) 1,932 ? -30.5°
Maximum altitude 03:09:11 15° 91° (E) 1,649 ? -30.2°
Enters shadow 03:09:33 14° 97° (E) 1,655 ? -30.2°
